Date String (YYYY-MM-DD hh:mm:ss) UTC,Instrument flags,absolute air pressure of the measurement (hPa),sample flow rate (lpm),inlet stack bypass flow (lpm),air temperature of the measurement (°C),ambient temperature measured by the external sensor (°C),aerosol sample conditioner tube jacket temperature (°C),OPC LED temperature (°C),internal box temperature (°C),relative humidity of the measurement (%),span deviation,mass concentration of particles derived from Lorenz-Mie calculation of OPC scattering (μg/m³),mass concentration of particles derived from Lorenz-Mie calculation of OPC scattering (μg/m³),mass concentration of particles derived from Lorenz-Mie calculation of OPC scattering (μg/m³)
DateTimeUTC,F1_M11,P_M11,Q1_M11,Q2_M11,T1_M11,T2_M11,T3_M11,T4_M11,T5_M11,U1_M11,ZSPAN_M11,X0_M11,X2_M11,X1_M11
2024-05-29 23:00:00,SystemResetWarning,0826.9,4.99,000.00,029.0,028.0,000.0,037.4,030.7,016.2,0000.0,0008.27,0002.91,0001.81
2024-05-29 23:01:00,SystemResetWarning,0827.0,4.99,000.00,029.1,028.3,000.0,037.4,030.9,015.6,0000.0,0008.69,0002.92,0001.82
2024-05-29 23:02:00,SystemResetWarning,0827.0,5.00,000.00,029.2,028.5,000.0,037.4,031.0,016.3,0000.0,0009.63,0002.91,0001.83
2024-05-29 23:03:00,SystemResetWarning,0827.1,5.00,000.00,029.3,028.7,000.0,037.5,031.1,015.3,0000.0,0010.09,0002.85,0001.83
2024-05-29 23:04:00,SystemResetWarning,0827.0,5.00,000.00,029.3,028.8,000.0,037.5,031.2,014.7,0000.0,0010.18,0002.87,0001.82
2024-05-29 23:05:00,SystemResetWarning,0827.1,5.00,000.00,029.4,029.0,000.0,037.5,031.3,014.2,0000.0,0010.24,0002.90,0001.84
2024-05-29 23:06:00,SystemResetWarning,0827.1,5.00,000.00,029.5,029.1,000.0,037.6,031.3,015.5,0000.0,0009.69,0002.89,0001.85
2024-05-29 23:07:00,SystemResetWarning,0827.1,5.00,000.00,029.6,029.2,000.0,037.6,031.4,015.1,0000.0,0009.80,0002.91,0001.84
2024-05-29 23:08:00,SystemResetWarning,0827.1,5.01,000.00,029.6,029.3,000.0,037.7,031.5,014.9,0000.0,0009.90,0002.85,0001.83
2024-05-29 23:09:00,SystemResetWarning,0827.1,5.01,000.00,029.7,029.4,000.0,037.7,031.6,014.9,0000.0,0009.91,0002.78,0001.82
2024-05-29 23:10:00,SystemResetWarning,0827.1,5.00,000.00,029.8,029.5,000.0,037.8,031.6,014.0,0000.0,0010.19,0002.73,0001.81
2024-05-29 23:11:00,SystemResetWarning,0827.1,5.01,000.00,029.8,029.5,000.0,037.8,031.7,013.6,0000.0,0009.72,0002.73,0001.81
2024-05-29 23:12:00,SystemResetWarning,0827.1,4.99,000.00,029.9,029.2,000.0,037.9,031.5,013.5,0000.0,0009.09,0002.68,0001.79
2024-05-29 23:13:00,SystemResetWarning,0827.1,5.00,000.00,029.6,026.7,000.0,037.9,030.4,014.0,0000.0,0008.10,0002.66,0001.77
2024-05-29 23:14:00,SystemResetWarning,0827.0,5.02,000.00,029.1,025.4,000.0,037.9,029.7,014.6,0000.0,0007.79,0002.70,0001.78
2024-05-29 23:15:00,SystemResetWarning,0827.0,5.00,000.00,029.0,026.0,000.0,037.8,029.9,015.1,0000.0,0007.70,0002.72,0001.78
2024-05-29 23:16:00,SystemResetWarning,0827.0,4.99,000.00,029.0,026.5,000.0,037.7,030.1,015.0,0000.0,0007.90,0002.71,0001.78
2024-05-29 23:17:00,SystemResetWarning,0827.0,5.00,000.00,029.0,026.9,000.0,037.6,030.3,013.5,0000.0,0008.21,0002.80,0001.79
2024-05-29 23:18:00,SystemResetWarning,0827.0,5.00,000.00,029.0,027.3,000.0,037.6,030.5,014.0,0000.0,0008.11,0002.88,0001.80
2024-05-29 23:19:00,SystemResetWarning,0827.0,5.00,000.00,029.1,027.7,000.0,037.5,030.7,015.0,0000.0,0007.84,0002.89,0001.80
2024-05-29 23:20:00,SystemResetWarning,0827.0,4.99,000.00,029.1,028.0,000.0,037.5,030.8,015.2,0000.0,0008.14,0002.94,0001.81
2024-05-29 23:21:00,SystemResetWarning,0826.9,4.99,000.00,029.2,028.3,000.0,037.5,030.9,015.4,0000.0,0008.70,0002.94,0001.83
2024-05-29 23:22:00,SystemResetWarning,0826.9,4.99,000.00,029.3,028.5,000.0,037.5,031.0,015.6,0000.0,0008.51,0002.93,0001.82
2024-05-29 23:23:00,SystemResetWarning,0827.0,5.00,000.00,029.4,028.7,000.0,037.5,031.1,015.4,0000.0,0008.57,0002.96,0001.82
2024-05-29 23:24:00,SystemResetWarning,0827.0,5.00,000.00,029.4,028.8,000.0,037.6,031.2,015.3,0000.0,0009.29,0003.04,0001.84
2024-05-29 23:25:00,SystemResetWarning,0826.9,5.01,000.00,029.5,029.0,000.0,037.6,031.3,015.0,0000.0,0009.49,0003.07,0001.83
2024-05-29 23:26:00,SystemResetWarning,0827.0,5.00,000.00,029.6,029.1,000.0,037.6,031.4,015.0,0000.0,0009.38,0003.03,0001.82
2024-05-29 23:27:00,SystemResetWarning,0827.0,4.99,000.00,029.6,029.2,000.0,037.7,031.4,015.2,0000.0,0009.71,0003.04,0001.83
2024-05-29 23:28:00,SystemResetWarning,0827.0,4.99,000.00,029.7,029.3,000.0,037.7,031.5,015.3,0000.0,0009.85,0003.02,0001.82
2024-05-29 23:29:00,SystemResetWarning,0827.0,5.00,000.00,029.8,029.4,000.0,037.7,031.6,015.3,0000.0,0010.57,0002.97,0001.81
2024-05-29 23:30:00,SystemResetWarning,0827.0,5.00,000.00,029.8,029.5,000.0,037.8,031.7,015.5,0000.0,0010.63,0003.00,0001.81
2024-05-29 23:31:00,SystemResetWarning,0827.0,5.01,000.00,029.9,029.5,000.0,037.9,031.7,015.5,0000.0,0010.65,0003.02,0001.81
2024-05-29 23:32:00,SystemResetWarning,0827.0,5.02,000.00,030.0,029.6,000.0,037.9,031.8,015.3,0000.0,0010.47,0003.04,0001.80
2024-05-29 23:33:00,SystemResetWarning,0827.0,4.99,000.00,030.0,029.7,000.0,038.0,031.8,015.6,0000.0,0009.79,0003.02,0001.80
2024-05-29 23:34:00,SystemResetWarning,0826.9,4.99,000.00,030.0,029.0,000.0,038.1,031.5,015.4,0000.0,0009.61,0003.06,0001.80
2024-05-29 23:35:00,SystemResetWarning,0826.9,5.01,000.00,029.7,026.9,000.0,038.1,030.5,015.8,0000.0,0009.65,0003.07,0001.80
2024-05-29 23:36:00,SystemResetWarning,0826.9,5.02,000.00,029.5,026.8,000.0,038.1,030.4,016.3,0000.0,0009.04,0003.06,0001.79
2024-05-29 23:37:00,SystemResetWarning,0826.9,4.99,000.00,029.4,027.2,000.0,038.0,030.6,016.6,0000.0,0008.79,0002.99,0001.79
2024-05-29 23:38:00,SystemResetWarning,0827.0,4.99,000.00,029.4,027.6,000.0,037.9,030.8,016.3,0000.0,0008.67,0002.96,0001.78
2024-05-29 23:39:00,SystemResetWarning,0826.9,5.00,000.00,029.5,027.9,000.0,037.9,031.0,016.6,0000.0,0008.34,0002.99,0001.77
2024-05-29 23:40:00,SystemResetWarning,0826.9,5.00,000.00,029.5,028.2,000.0,037.9,031.1,016.1,0000.0,0007.88,0002.94,0001.76
2024-05-29 23:41:00,SystemResetWarning,0827.0,5.01,000.00,029.6,028.5,000.0,037.9,031.2,016.2,0000.0,0007.37,0002.85,0001.76
2024-05-29 23:42:00,SystemResetWarning,0827.0,5.00,000.00,029.6,028.7,000.0,037.9,031.3,016.6,0000.0,0007.47,0002.80,0001.75
2024-05-29 23:43:00,SystemResetWarning,0827.0,4.99,000.00,029.7,028.9,000.0,037.9,031.4,015.5,0000.0,0007.55,0002.78,0001.77
2024-05-29 23:44:00,SystemResetWarning,0826.9,4.99,000.00,029.7,029.0,000.0,037.9,031.5,015.4,0000.0,0007.46,0002.79,0001.78
2024-05-29 23:45:00,SystemResetWarning,0826.9,5.00,000.00,029.8,029.2,000.0,037.9,031.6,015.8,0000.0,0008.27,0002.81,0001.81
2024-05-29 23:46:00,SystemResetWarning,0826.9,5.00,000.00,029.9,029.3,000.0,038.0,031.7,014.6,0000.0,0008.43,0002.69,0001.81
2024-05-29 23:47:00,SystemResetWarning,0826.9,5.00,000.00,029.9,029.4,000.0,038.0,031.7,015.6,0000.0,0008.41,0002.65,0001.82
2024-05-29 23:48:00,SystemResetWarning,0826.9,5.01,000.00,030.0,029.5,000.0,038.0,031.8,015.0,0000.0,0008.46,0002.67,0001.84
2024-05-29 23:49:00,SystemResetWarning,0826.9,4.99,000.00,030.0,029.5,000.0,038.1,031.8,014.6,0000.0,0008.87,0002.75,0001.86
2024-05-29 23:50:00,SystemResetWarning,0826.8,4.99,000.00,029.9,027.7,000.0,038.2,030.9,014.8,0000.0,0009.08,0002.70,0001.87
2024-05-29 23:51:00,SystemResetWarning,0826.8,5.02,000.00,029.5,026.7,000.0,038.2,030.4,015.3,0000.0,0008.78,0002.74,0001.88
2024-05-29 23:52:00,SystemResetWarning,0826.8,5.00,000.00,029.4,027.0,000.0,038.1,030.5,015.4,0000.0,0008.60,0002.79,0001.88
2024-05-29 23:53:00,SystemResetWarning,0826.8,4.99,000.00,029.4,027.4,000.0,038.0,030.7,015.2,0000.0,0008.74,0002.80,0001.89
2024-05-29 23:54:00,SystemResetWarning,0826.8,5.00,000.00,029.4,027.8,000.0,038.0,030.9,014.9,0000.0,0008.27,0002.80,0001.88
2024-05-29 23:55:00,SystemResetWarning,0826.8,5.00,000.00,029.5,028.1,000.0,037.9,031.1,015.6,0000.0,0008.54,0002.87,0001.88
2024-05-29 23:56:00,SystemResetWarning,0826.8,5.01,000.00,029.5,028.4,000.0,037.9,031.2,015.6,0000.0,0008.09,0002.87,0001.87
2024-05-29 23:57:00,SystemResetWarning,0826.8,5.00,000.00,029.6,028.6,000.0,037.9,031.3,016.0,0000.0,0007.56,0002.92,0001.88
2024-05-29 23:58:00,SystemResetWarning,0826.8,4.99,000.00,029.7,028.8,000.0,037.9,031.4,016.1,0000.0,0007.63,0002.93,0001.88
2024-05-29 23:59:00,SystemResetWarning,0826.8,5.00,000.00,029.7,029.0,000.0,037.9,031.5,015.9,0000.0,0007.95,0002.95,0001.87
